Regional Weather Roundup
Issued by NWS Wakefield, VA

Home | Current Version | Previous Version | Graphics & Text | Print | Product List | Glossary On
Versions: 1 2 3 4 5 6 7 8 9 10 11 12 13 14 15 16 17 18 19 20 21 22 23 24 25 26 27 28 29 30 31 32 33 34 35 36 37 38 39 40 41 42 43 44 45 46 47 48 49 50
000
ASUS41 KAKQ 201914
RWRAKQ

REGIONAL WEATHER ROUNDUP
NATIONAL WEATHER SERVICE WAKEFIELD VA
300 PM EDT MON APR 20 2015

Note: "fair" indicates few or no clouds below 12,000 feet with no
significant weather and/or obstructions to visibility. * = Denotes
station may not report precipitation (e.g., rain,snow,etc.),
thunder or fog.

VAZ042-051-052>054-056-202000-
NORTHERN VIRGINIA

CITY           SKY/WX    TMP DP  RH WIND       PRES   REMARKS
WASH NATIONAL  CLOUDY    78  61  55 S14       29.57F
DULLES         PTSUNNY   78  58  49 S9G20     29.57F
FORT BELVOIR   PTSUNNY   79  59  50 S10G17    29.58F
QUANTICO       PTSUNNY   76  60  57 S15G21    29.59F
FREDERICKSBRG* PTSUNNY   79  60  50 S15       29.59S
STAFFORD*      MOSUNNY   79  55  43 S12       29.63F
WARRENTON      MOSUNNY   80  62  53 SW12G20   29.57F
CULPEPER*      CLOUDY    81  59  47 S9G16     29.58F
MANASSAS*      PTSUNNY   79  59  50 SW8       29.58F
LEESBURG*      PTSUNNY   79  61  53 S20G29    29.58S
WINCHESTER     PTSUNNY   75  52  43 SE17      29.56F
FRONT ROYAL*   MOCLDY    77  59  53 S12G17    29.55F
LURAY*         CLOUDY    77  59  53 SW9       29.57S
$$

VAZ048-049-060>072-079>083-202000-
CENTRAL AND SOUTH CENTRAL VIRGINIA

CITY           SKY/WX    TMP DP  RH WIND       PRES   REMARKS
RICHMOND       PTSUNNY   78  61  55 S15       29.64S
CHESTERFIELD*  NOT AVBL
PETERSBURG*    PTSUNNY   81  59  47 SW12      29.65S
HANOVER        PTSUNNY   77  59  53 SW15G23   29.63F
TAPPAHANNOCK*  PTSUNNY   80  56  44 S10G17    29.63F
QUINTON*       MOCLDY    77  60  57 S8        29.64S
CHARLOTTSVILLE MOSUNNY   78  59  51 S17G25    29.58F
GORDONSVILLE*  CLOUDY    77  60  54 S15G23    29.57F
ORANGE*        PTSUNNY   77  59  53 SE14      29.60F
LOUISA*        PTSUNNY   79  59  50 S10G21    29.59F
BUMPASS*       MOCLDY    76  60  56 S10G20    29.61S
FARMVILLE*     PTSUNNY   81  57  44 S13G21    29.60F
CREWE*         FAIR      77  64  64 S6        29.62F
FORT PICKETT*  FAIR      78  61  54 SW10G26   29.63F
CHASE CITY*    FAIR      81  61  50 SW6       29.64F
CLARKSVILLE*   FAIR      77  59  53 SW13G20   29.65S
SOUTH HILL*    PTSUNNY   77  60  56 S18G24    29.71F
LAWRENCEVILLE* MOCLDY    78  63  59 S9G16     29.65F
EMPORIA*       MOSUNNY   77  63  61 SE12G17   29.68F
$$

VAZ088>098-202000-
SOUTHEAST VIRGINIA

CITY           SKY/WX    TMP DP  RH WIND       PRES   REMARKS
NORFOLK        PTSUNNY   79  61  53 SW18      29.67S
VIRGINIA BEACH MOSUNNY   81  63  54 SW21G30   29.67F
NORFOLK NAVAL  PTSUNNY   82  62  50 SW10G20   29.67F
WEST POINT*    PTSUNNY   81  60  49 S12       29.64F
SALUDA*        CLOUDY    77  63  61 S9G23     29.63F
NEWPORT NEWS   MOSUNNY   82  63  52 SW18      29.66F
LANGLEY AFB    PTSUNNY   78  64  60 S17       29.64F
FORT EUSTIS    PTSUNNY   77  63  61 S13G20    29.64F
WILLIAMSBURG*    N/A    N/A N/A N/A MISG      29.65F
HR EXEC AP*    MOCLDY    79  63  57 S14G21    29.69F
FRANKLIN*      PTSUNNY  N/A N/A N/A SW17G23   29.68F
WAKEFIELD      PTSUNNY   78  62  57 SW13G20   29.66F
$$

VAZ020-022-025-037-045-202000-
WEST CENTRAL AND SOUTHWEST VIRGINIA

CITY           SKY/WX    TMP DP  RH WIND       PRES   REMARKS
STAUNTON*      MOSUNNY   76  57  50 SW12G18   29.60F
WAYNESBORO*    CLOUDY    73  56  54 S12G24    29.60F
HOT SPRINGS VA CLOUDY    65  51  59 SW13G20   29.67F
LYNCHBURG      CLOUDY    76  57  51 S20G31    29.63F
DANVILLE       MOSUNNY   78  57  48 SW15G29   29.65F
SOUTH BOSTON*  FAIR      78  56  46 MISG      29.65S
MARTINSVILLE   PTSUNNY   77  55  47 SW8G20    29.67F
ROANOKE        PTSUNNY   76  51  41 SW10      29.61F
BLACKSBURG     CLOUDY    69  53  57 SW8       29.68F
DUBLIN*        MOSUNNY   75  49  39 SW20      29.65F
MARION*        MOSUNNY   71  48  45 W17G25    29.69F
HILLSVILLE*    MOSUNNY   71  53  52 S17G29    29.68F
RICHLANDS*     LGT RAIN  66  49  54 W8G28     29.67F
WISE*          MOSUNNY   68  45  42 SW22G33   29.67F
ABINGDON*      MOSUNNY   71  53  52 W13G29    29.66F
$$

MDZ021>025-VAZ099-100-202000-
SOUTHERN MARYLAND AND THE DELMARVA PENINSULA

CITY           SKY/WX    TMP DP  RH WIND       PRES   REMARKS
PATUXENT RIVER PTSUNNY   76  63  64 S10G18    29.61F
BAY BRIDGE APT   N/A    N/A N/A N/A S13       29.60F
LEONARDTOWN    MOSUNNY   77  59  53 SW10G20   29.62F
DOVER          MOSUNNY   78  65  65 S10       29.58F
GEORGETOWN     PTSUNNY   75  63  66 S13       29.63F
EASTON         MOSUNNY   81  64  57 SW13G18   29.64F
CAMBRIDGE      PTSUNNY   77  63  61 S6        29.62F
SALISBURY      PTSUNNY   74  63  68 SW10      29.63F
OCEAN CITY     SUNNY     60  56  86 S8G17     29.66F
WALLOPS ISLAND MOSUNNY   70  64  81 S15       29.66S
ACCOMACK*      MOSUNNY   75  61  60 SW13G22   29.65S
$$

NCZ012>017-030>032-202000-
NORTH CENTRAL AND EASTERN NORTH CAROLINA

CITY           SKY/WX    TMP DP  RH WIND       PRES   REMARKS
ROANOKE RAPIDS FAIR      77  63  61 S14G23    29.68F
RALEIGH        CLOUDY    77  63  61 SW12      29.69F
ELIZABETH CITY MOSUNNY   77  65  66 SW17G23   29.72S
AHOSKIE*       SUNNY     77  62  60 S13       29.69F
EDENTON*       MOSUNNY   78  63  60 SW13      29.73F
CURRITUCK*     NOT AVBL
KILL DEVIL HLS MOSUNNY   80  63  56 SW12G17   29.72S
MANTEO         MOSUNNY   77  63  60 W15G22    29.73F
CAPE HATTERAS  SUNNY     71  64  78 SW13G20   29.77F
TARBORO*       FAIR      80  62  55 S7G18     29.71F
GOLDSBORO      MOSUNNY   79  63  57 SW16G22   29.70F
WASHINGTON     SUNNY     78  63  58 SW12G22   29.73F
GREENVILLE     SUNNY     79  63  57 SW15G23   29.75F
NEW BERN       MOSUNNY   81  62  52 SW13G22   29.76F
WILMINGTON     CLOUDY    78  65  63 S10       29.78F
$$

VAZ048-202000-
ELSEWHERE

CITY           SKY/WX    TMP DP  RH WIND       PRES   REMARKS
HARRISBURG PA  PTSUNNY   71  59  65 E8        29.57F
BALTIMORE      PTSUNNY   78  58  49 SW9G17    29.57F
ANNAPOLIS      PTSUNNY   69  59  70 SE12      29.59F
ANDREWS AFB    PTSUNNY   77  60  55 SW17      29.57F
PHILADELPHIA   MOSUNNY   72  62  71 S5        29.61F
HENDERSON NC   CLOUDY    76  57  52 S15G22    29.67F
GREENSBORO     CLOUDY    74  59  59 SW20G25   29.67F
ROCKY MOUNT    MOSUNNY   79  63  57 SW16G22   29.70F
$$

VAZ100-202000-
MARINE

STATION/POSITION TIME  TEMP    WIND        PRES    WAVE   SWELL
                       AIR SEA DIR/SP/G            HT/PER HT/PER
                 (UTC) (F)     (DEG/KT/KT) (MB)    (FT/S) (FT/S)
BRANDYWINE LGT   1800   54 51  150/ 11/ 12 1004.2F
CAPE MAY NJ      1800   60 54  130/ 10/ 11 1003.9F
LEWES DE         1800   69 50  150/  6/ 10 1003.9F
15NM E FENWICK I 1850   51 48              1004.6F  10/10
OCEAN-CITY-INLET 1800   53 50  220/  9/ 12 1004.8F
WACHAPREAGUE VA  1800   71 64  200/ 10/ 14 1004.5F
THOMAS POINT MD  1900   67 55  160/ 18/ 19 1002.4F
GOOSES REEF MD   1900   63 59  170/ 12/ 16   N/A     1
COVE POINT MD    1800   65     160/ 16/ 16 1003.0F
SOLOMONS ISLAND  1800      58                N/A
BISHOPS HEAD MD  1800   65 65  160/ 12/ 13 1003.6F
PINEY POINT MD   1800          230/  9/ 10   N/A
CAMBRIDGE MD     1800   75 59  180/  7/ 13 1003.3F
LEWISETTA VA     1800   74 63              1003.0F
RAPPAHANNOCK LGT 1800          170/ 11/ 12 1004.8F
STINGRAY PT      1900   68 60  210/  8/ 10 1006.2F   1/ 2
YORK RVR RNG VA  1800   70     230/ 16/ 19 1003.9F
YORKTOWN VA      1800   74 60  220/ 11/ 17 1004.2F
DOMINION TERM VA 1800   70     230/ 12/ 15 1005.0F
KIPTOPEKE VA     1800      63  200/  6/  9   N/A
CHES BAY BRIDGE  1800   73 51  200/ 15/ 16 1004.4F
CAPE HENRY VA    1800   76     200/ 10/ 15 1003.7F
CHESAPEAKE LGHT  1800   67     200/ 21/ 22 1005.5F
WILLOUBY STN VA  1800   70     240/ 13/ 14 1005.6F
S CRANEY ISL VA  1800          220/  8/ 13 1005.1F
CAPE HENRY BUOY  1828      56                N/A     6/ 9   2/11
1ST LANDING BUOY 1900   70     220/ 14/ 16 1004.6F   3/ 5
OFFSHORE WE BUOY 1811      50                N/A     7/ 9   5/ 9
64NM E OF VA BCH 1850   60 58  200/ 12/ 14 1006.5R   9/ 8   8/ 8
DUCK PIER NC     1800   72 48  250/ 12/ 18 1005.9F
44056 DUCK FRF   1811      54                N/A     5/ 9   2/11
OREGON INLET NC  1800   69 65  200/ 18/ 22 1007.6R
HATTERAS NC      1800   72 67  210/ 12/ 16 1008.0F
DIAMOND SHLS NC  1850   71 73  220/ 19/ 23 1008.1    6/ 7   3/ 7
CAPE LOOKOUT NC  1900   71     220/ 14/ 17 1008.7S
$$



USA.gov is the U.S. government's official web portal to all federal, state and local government web resources and services.